Theta_e
314 313 313 313 314 314 314 315 315 315 316 316 315 315 314 314 315 315 315 315 315 315 314 313 311 308 308 307 304 301 299 298 298 298 298 298 298 298 298 298 299 299 299 299 299 298 297 297 298 298 298 299 299 299 300 299 298 298 297 295 295 294 293 293 293 292 292 292 292 291 291 290 290 290 290 289 289 288 288 288 287 287 287 287 286 286 285
312 312 312 312 313 313 313 313 313 314 314 315 315 315 315 315 315 315 314 313 313 312 309 306 303 300 300 301 299 297 297 296 296 296 296 296 296 296 296 297 297 297 297 298 298 298 297 297 297 297 297 297 298 298 299 300 300 299 297 296 295 294 293 293 293 292 292 292 291 291 290 290 290 290 289 289 288 288 288 287 287 287 286 286 286 285 285
310 310 311 312 312 312 312 312 313 313 313 314 314 314 314 314 314 314 314 314 313 307 302 299 298 295 296 298 298 296 295 296 296 295 295 295 295 295 295 295 296 296 296 297 297 297 297 296 296 296 296 296 296 296 297 298 299 299 298 296 295 294 293 293 293 292 292 292 291 290 290 290 290 289 289 288 288 287 287 286 286 286 286 285 285 285 285
308 309 309 310 311 312 311 312 311 311 312 312 312 313 314 314 314 313 314 313 306 299 297 297 296 294 293 295 297 295 294 295 296 295 295 295 294 294 294 294 295 295 295 296 296 296 296 295 295 295 295 295 295 295 295 295 296 297 297 296 295 294 294 294 293 292 292 291 291 290 290 290 289 289 288 287 287 286 286 286 285 285 285 285 285 284 284
307 306 307 307 308 307 308 307 308 309 310 310 310 311 310 309 310 310 307 303 298 295 295 295 295 294 293 294 295 294 293 294 295 295 295 294 294 293 293 293 294 294 295 295 295 295 295 295 295 294 294 294 293 293 293 293 294 295 296 296 295 294 294 293 293 292 292 291 290 290 290 289 289 288 287 287 286 286 285 285 285 284 284 284 284 284 283
304 303 304 304 303 303 304 303 303 303 303 303 304 303 300 300 302 301 298 296 295 294 294 294 294 293 292 293 295 294 292 293 293 294 294 293 293 293 293 293 293 293 294 294 294 294 294 294 294 294 294 293 292 291 292 293 293 293 294 295 294 294 293 293 292 292 291 291 290 290 289 288 288 287 287 286 286 285 285 284 284 284 284 283 283 283 283
301 301 303 302 302 302 302 300 298 298 297 297 298 297 294 295 297 296 295 294 294 293 293 293 293 292 291 293 295 294 292 292 292 293 294 293 292 292 292 292 292 292 293 293 293 294 294 294 293 293 293 293 291 291 291 292 292 292 292 293 293 293 293 292 292 292 291 290 290 289 288 288 287 287 286 286 285 285 284 284 284 283 283 283 283 282 282
302 303 304 304 303 303 302 298 297 297 296 296 298 298 295 294 295 295 294 294 293 292 292 293 292 291 291 292 295 294 291 291 292 293 293 293 292 291 292 292 292 292 292 293 293 293 293 293 292 292 293 292 291 291 291 291 291 291 291 291 291 291 291 291 291 291 290 290 289 288 288 287 286 286 285 285 285 284 284 283 283 283 282 282 282 282 281
304 304 305 305 305 305 303 299 296 296 296 295 296 298 296 294 294 295 293 293 293 292 292 292 291 291 290 291 294 293 291 291 292 292 293 292 291 291 291 291 291 292 292 292 292 292 292 291 292 292 292 292 291 291 291 291 291 290 290 290 291 291 290 291 290 290 290 289 289 288 287 286 286 285 285 285 284 284 283 283 282 282 282 282 282 281 281
304 303 302 302 304 305 301 296 295 296 297 296 295 296 297 294 294 295 293 292 293 292 291 292 291 290 290 290 291 291 290 290 292 292 292 291 290 290 290 291 291 291 291 291 290 290 290 290 290 291 291 291 291 291 291 291 290 290 289 289 290 290 290 290 290 290 289 289 288 288 287 286 286 285 284 284 284 283 283 282 282 282 282 281 281 281 280
300 299 298 299 301 303 298 293 294 296 296 295 295 297 298 294 293 294 293 292 292 292 291 291 290 289 289 289 289 289 290 290 291 291 291 290 289 289 289 290 290 289 289 289 289 289 289 289 289 289 290 291 291 291 291 291 290 290 290 289 289 289 289 289 289 289 289 289 288 287 286 286 285 285 284 284 283 283 283 282 282 281 281 281 280 280 280
297 297 297 296 298 300 296 292 293 294 294 293 295 298 298 293 292 294 293 292 293 292 292 291 290 290 290 289 289 289 290 290 291 290 289 289 288 288 288 288 288 287 287 287 287 287 287 287 288 288 289 290 290 290 290 290 290 291 290 289 288 288 289 288 288 288 288 288 288 287 286 286 285 284 284 283 283 282 282 282 281 281 280 280 279 279 279
296 297 297 295 297 298 295 292 292 293 293 294 295 296 295 291 292 295 294 292 293 292 291 291 290 290 290 290 289 290 290 290 289 288 288 287 287 287 287 287 286 286 286 286 285 285 285 285 286 287 287 288 288 288 289 289 290 290 290 289 289 288 288 288 288 288 288 287 287 287 286 285 285 284 283 283 282 281 281 281 280 280 279 279 278 278 278
296 297 296 295 295 296 293 291 291 292 293 294 294 293 292 292 294 296 294 293 293 292 291 291 290 290 290 290 290 290 289 289 288 287 286 286 286 286 286 285 285 285 284 284 284 283 283 283 283 284 284 284 285 286 287 288 289 290 290 290 289 288 288 287 287 287 287 287 286 286 285 285 284 283 283 282 281 281 280 280 279 278 278 277 277 277 276
293 293 293 292 293 293 292 290 291 291 292 293 292 292 293 294 296 295 293 293 292 291 290 290 290 289 289 288 288 288 288 287 286 285 285 285 285 285 284 284 284 283 283 282 282 281 281 281 281 281 282 282 283 284 285 286 287 288 288 289 289 289 288 287 286 286 286 286 285 285 285 284 283 282 282 281 280 280 279 279 278 277 276 276 276 275 275
291 290 291 292 292 292 291 290 290 290 291 291 291 292 293 295 295 294 293 292 291 290 289 289 288 288 287 287 287 287 286 285 284 284 284 283 283 283 283 283 282 282 281 281 280 280 279 279 279 280 280 281 281 282 282 282 283 285 287 288 289 288 288 287 287 286 285 284 284 284 284 283 282 282 280 280 279 279 278 278 277 276 275 275 275 274 274
292 291 293 293 292 291 291 290 290 290 290 291 292 293 293 294 293 292 291 291 290 289 288 287 287 287 286 286 285 285 284 283 282 282 281 281 281 281 281 281 281 280 280 279 279 278 278 278 278 278 279 279 279 279 279 279 281 284 287 287 287 287 287 287 287 286 285 284 283 283 283 282 282 281 279 278 278 277 277 277 276 275 275 274 274 274 274
291 291 292 291 291 290 290 290 289 289 290 292 294 294 293 292 292 291 290 289 288 287 286 286 286 285 285 284 283 283 282 281 281 280 279 279 279 279 279 279 279 278 278 277 277 277 277 277 277 277 277 277 277 277 277 277 280 283 283 283 283 284 285 286 286 285 284 283 282 282 281 281 281 280 279 278 277 276 276 276 276 275 275 274 274 274 274
290 290 290 290 290 290 289 289 288 289 290 292 293 292 291 290 289 289 288 287 286 285 284 284 283 283 282 282 281 281 280 280 279 279 278 278 278 278 278 278 277 276 276 276 276 276 275 275 275 276 275 275 275 275 275 277 279 280 278 278 280 281 283 284 285 285 283 282 282 281 280 280 280 279 278 277 277 276 276 276 276 275 275 274 274 274 274
289 289 289 289 289 289 288 288 288 288 288 289 291 291 289 288 287 286 285 284 284 283 282 281 281 280 280 279 279 279 279 278 278 277 277 276 276 276 276 276 275 275 274 274 274 274 274 274 274 274 273 273 273 274 275 276 277 276 275 276 277 278 281 282 283 284 283 282 281 280 279 279 279 278 278 277 277 276 276 276 276 276 275 275 274 275 274
289 288 288 288 288 288 288 288 288 287 287 288 289 288 287 286 285 285 284 282 281 281 280 279 278 278 278 278 278 277 277 276 276 276 275 275 275 275 275 275 274 274 273 273 273 273 273 273 272 272 272 272 272 273 274 274 274 273 273 274 275 276 279 281 282 283 282 281 281 280 279 278 278 278 278 277 277 277 276 276 276 276 276 275 275 275 275
288 288 288 288 288 287 288 288 288 288 288 287 287 286 285 285 284 283 282 281 279 278 278 277 277 277 276 276 276 276 275 275 275 274 274 274 273 274 274 273 273 272 272 272 271 271 271 270 270 270 271 271 271 271 271 271 271 271 272 273 274 276 277 279 281 282 281 280 280 279 278 278 277 277 277 277 277 277 276 276 276 276 276 276 275 275 275
288 288 288 288 288 287 287 287 288 287 285 285 285 285 283 282 281 280 279 278 277 277 276 275 275 275 275 275 275 274 274 273 273 273 273 273 272 272 272 272 271 271 271 270 270 269 269 269 269 269 269 269 269 268 268 268 269 270 271 272 274 275 277 278 280 281 281 280 279 278 278 277 277 276 276 276 276 276 276 276 276 276 276 276 276 276 275
288 288 288 287 287 287 287 287 287 285 282 281 283 282 280 278 277 276 276 276 276 276 275 274 274 274 274 274 273 273 273 272 272 272 272 272 272 272 271 271 270 269 269 268 268 268 268 268 267 267 267 266 266 266 267 267 268 269 270 272 273 275 276 278 279 280 281 280 279 278 277 277 276 276 275 275 275 276 276 276 276 276 277 277 276 276 276
288 288 288 287 287 287 286 284 283 281 278 277 278 277 276 275 274 274 274 274 274 274 274 273 273 273 273 272 272 272 272 271 271 271 271 271 271 270 270 269 268 268 267 267 267 267 266 266 266 265 265 265 265 265 266 266 267 268 269 270 272 274 275 277 278 280 280 280 279 278 277 276 276 275 275 275 275 275 276 277 276 276 277 277 277 277 276
287 287 286 285 284 284 283 283 282 278 274 273 273 273 273 273 273 273 273 273 272 272 272 272 272 272 271 271 271 271 270 270 270 270 270 269 269 268 268 267 267 266 266 266 265 265 265 264 264 264 264 264 264 264 265 265 266 267 269 270 272 273 275 277 278 279 280 280 279 278 277 277 276 275 275 275 275 275 275 276 276 276 277 277 278 277 277
282 280 281 284 286 285 282 280 278 274 271 271 272 272 271 271 271 271 271 270 270 270 270 270 270 270 270 270 270 269 269 269 269 268 268 267 267 267 266 266 265 265 264 264 264 264 263 263 263 263 263 263 263 264 264 265 267 268 269 270 270 271 273 274 276 278 280 280 279 278 277 276 276 275 275 275 275 275 275 275 275 276 276 277 277 278 277
276 274 276 281 283 281 276 273 272 271 270 271 271 270 270 270 270 269 269 269 269 269 269 269 269 269 269 269 268 268 267 267 267 266 266 266 265 265 264 264 264 263 263 263 263 262 262 262 262 262 263 263 263 264 266 267 268 268 267 268 268 270 272 273 275 277 279 280 279 278 277 276 276 275 275 275 274 274 274 275 275 275 276 276 277 278 278
272 270 270 272 272 272 270 270 270 270 270 270 269 269 269 269 269 269 269 269 269 268 268 268 268 268 267 267 266 266 265 265 265 264 264 264 264 263 263 262 262 262 262 262 262 262 262 262 262 262 263 263 264 265 266 266 266 266 266 267 269 271 273 275 276 278 279 280 279 278 277 276 276 275 274 274 274 274 274 275 275 275 276 276 276 277 278
268 268 268 268 268 268 269 269 269 268 268 268 268 268 268 268 268 268 267 268 268 267 267 267 266 266 265 265 264 264 264 263 263 263 262 262 262 262 262 262 261 261 261 261 261 262 262 262 262 263 263 263 264 264 265 265 265 266 267 268 269 270 272 273 275 276 278 279 279 278 277 276 275 274 274 274 274 274 274 274 275 275 276 276 276 277 277
267 267 267 267 267 267 268 268 267 267 267 268 267 267 267 266 266 266 266 266 266 266 265 265 264 264 263 263 263 262 262 262 261 261 261 261 261 261 261 261 261 261 261 261 261 262 262 262 262 263 263 263 263 264 264 265 266 266 266 266 267 268 269 271 273 275 277 278 278 277 276 275 274 273 273 273 273 273 274 274 275 275 276 276 276 276 276
269 271 271 269 267 267 267 266 266 266 266 266 266 265 265 265 265 265 265 265 264 264 264 263 263 262 262 261 261 261 260 260 260 260 260 260 260 261 261 261 261 261 261 262 262 262 262 262 262 262 263 263 263 264 264 265 265 265 265 266 267 268 269 270 272 274 276 278 277 276 275 274 273 273 273 273 273 273 274 274 275 275 275 276 276 276 276
270 273 273 269 267 267 266 266 265 265 265 264 264 264 264 264 264 264 263 263 263 262 262 261 261 261 261 260 260 260 260 260 259 260 260 260 260 261 261 261 261 262 262 262 262 262 262 262 262 262 263 263 263 264 264 264 264 265 265 266 267 268 269 270 271 272 274 276 276 275 274 273 273 273 273 273 273 273 274 274 275 275 275 276 276 276 276
266 268 267 265 264 265 265 264 263 263 263 263 263 263 263 262 262 262 262 262 261 261 261 260 260 260 260 260 259 259 259 259 259 260 260 261 261 261 262 262 262 262 262 262 262 262 262 262 262 262 263 263 263 263 263 263 263 264 264 264 265 267 268 270 271 272 274 275 275 274 274 273 273 273 273 273 273 273 274 274 275 275 275 275 275 276 276
263 263 263 263 263 263 262 262 262 262 261 261 261 261 261 261 261 261 261 260 260 260 260 260 259 259 259 259 259 259 260 260 260 261 261 261 262 262 262 262 262 261 261 261 261 261 261 261 262 262 262 262 262 262 262 262 262 262 263 264 265 267 268 270 272 273 274 275 274 274 273 273 273 273 273 273 273 273 274 274 274 274 274 274 274 275 277
262 262 262 262 261 261 261 261 260 260 260 260 260 260 260 260 260 260 260 260 259 259 259 259 259 259 259 259 260 260 261 261 261 262 262 262 262 262 262 261 260 260 260 260 261 261 261 261 261 261 261 261 261 261 261 262 262 263 264 265 266 267 269 270 272 273 274 274 274 273 273 272 272 272 272 273 273 273 274 274 274 273 273 273 274 275 275
261 260 260 260 260 259 259 259 259 259 260 259 259 259 259 259 259 259 259 259 259 259 259 259 259 259 260 260 261 261 261 262 262 262 262 262 261 261 260 260 260 260 260 260 260 260 260 260 260 260 260 261 261 261 262 262 263 264 265 266 267 268 269 270 272 273 273 273 273 272 272 272 272 272 272 272 273 273 273 273 272 272 272 273 273 272 270
260 259 259 260 259 259 259 259 259 259 259 258 258 258 258 258 258 258 258 258 258 259 259 259 260 260 261 261 262 262 262 262 262 261 261 260 260 259 259 259 259 259 259 259 260 260 260 260 260 260 261 261 261 262 262 263 264 265 265 266 267 268 270 271 272 272 272 272 272 271 271 271 271 271 272 272 272 272 272 271 271 271 271 271 270 269 267
259 259 259 259 259 258 258 259 259 258 258 258 258 258 258 258 258 258 258 258 259 259 260 261 261 262 262 262 261 261 261 261 260 260 259 259 259 259 259 259 259 259 259 260 260 260 260 260 260 261 261 261 262 262 263 264 265 266 267 267 268 269 270 271 271 270 270 271 271 271 271 271 271 271 271 271 271 270 270 270 270 269 269 268 267 266 266
259 258 258 258 258 258 258 258 258 258 258 258 257 257 257 258 258 258 259 259 260 260 261 262 262 261 261 261 261 260 260 259 259 259 259 259 259 259 259 259 259 260 260 260 260 260 260 260 261 261 261 262 262 263 264 265 266 267 268 268 268 269 269 269 269 269 269 269 269 269 269 269 269 269 269 269 268 268 268 268 268 267 266 266 265 265 264
258 258 258 258 258 258 258 258 258 258 257 257 257 257 257 258 258 259 259 260 260 261 262 261 261 261 261 260 260 259 259 259 259 259 259 259 259 259 259 259 259 259 260 260 260 260 261 261 261 261 262 262 263 263 264 265 266 266 266 267 267 267 267 267 267 268 268 268 268 268 267 267 267 267 267 266 266 266 266 266 266 265 265 264 264 264 263
257 258 258 257 257 257 257 257 257 257 257 257 258 258 258 258 259 259 260 260 261 261 261 261 261 261 260 260 259 258 258 258 258 258 259 259 259 258 258 259 259 260 260 260 260 261 261 261 261 262 262 262 263 263 264 265 265 265 265 265 265 265 266 266 266 266 266 266 266 266 266 266 265 265 265 265 265 265 265 265 264 264 264 264 263 264 264
257 257 257 256 257 257 257 257 257 257 257 257 258 258 259 259 259 260 261 261 261 261 261 260 260 260 259 259 258 258 258 258 258 258 258 258 259 259 259 259 259 260 260 260 260 261 261 261 261 262 262 262 262 263 263 264 264 264 264 264 264 264 264 264 264 265 265 265 265 264 265 264 264 264 264 264 264 264 264 264 264 263 263 264 263 263 264
257 257 256 256 256 256 256 256 257 257 257 258 258 258 259 259 260 260 261 261 261 261 260 260 260 259 259 259 258 258 258 258 258 258 258 258 258 259 259 259 259 260 260 260 260 260 261 261 261 261 262 262 262 262 263 263 263 263 263 263 263 263 263 263 264 264 264 264 264 264 264 264 264 264 264 263 263 263 263 263 263 263 262 263 262 262 263
256 256 256 256 256 255 256 256 256 257 257 257 258 258 259 260 260 261 261 260 260 260 260 260 260 259 259 259 258 258 258 258 258 258 258 258 258 258 259 259 259 259 259 259 259 260 260 260 261 261 261 261 262 262 262 262 262 262 262 262 262 262 262 263 263 263 263 263 263 263 263 263 263 263 263 263 263 263 262 262 262 262 262 262 262 263 263
256 256 255 255 255 255 255 256 256 257 257 257 258 259 260 260 260 261 260 260 260 260 259 260 259 259 259 259 258 258 258 258 258 258 258 258 258 258 258 259 259 259 259 259 259 259 259 260 260 260 261 261 261 261 261 261 261 261 261 261 262 262 262 262 262 262 262 262 262 262 262 262 262 262 262 262 262 262 262 261 261 261 261 262 263 263 264
255 254 254 254 254 255 256 256 256 256 257 258 259 260 260 260 260 260 260 260 260 259 259 259 259 259 259 258 258 258 258 258 258 259 259 258 258 258 258 258 258 258 258 258 258 258 258 259 259 259 260 260 261 261 261 260 261 261 261 261 261 261 261 261 261 261 261 261 262 261 262 262 261 261 261 261 261 261 261 261 261 260 261 262 263 263 263
254 254 254 254 255 255 256 256 257 257 259 259 260 260 260 260 260 260 260 260 260 259 259 259 259 259 259 258 258 258 258 258 258 258 258 258 258 258 258 258 258 258 258 258 258 258 258 258 258 259 259 259 259 259 260 260 260 260 260 260 260 260 260 260 261 261 261 261 261 261 261 261 261 261 260 260 260 260 260 261 261 261 262 262 263 263 263
254 254 255 255 256 256 256 257 258 259 260 260 260 260 260 260 260 260 260 260 259 259 259 259 259 259 259 258 258 258 258 258 258 258 258 258 258 258 258 258 258 258 258 258 258 258 258 258 258 259 259 259 258 258 259 259 259 259 259 259 260 260 260 260 260 260 260 260 260 260 260 260 260 260 260 260 260 260 260 260 261 261 262 262 263 263 263
255 255 256 256 257 257 258 259 259 260 260 260 260 260 260 260 260 260 260 259 259 259 259 259 259 259 258 258 258 258 258 258 258 258 258 258 258 258 258 258 258 258 258 258 258 258 258 258 258 258 258 258 258 258 258 258 258 258 259 259 259 259 259 259 259 260 260 259 259 259 259 260 260 260 260 260 260 260 261 261 262 262 263 263 263 263 263
256 256 257 257 258 259 259 260 260 260 260 260 259 260 260 259 259 259 259 259 259 259 259 259 259 258 258 258 258 258 258 258 258 258 258 258 258 258 258 258 258 258 258 258 258 258 258 258 258 258 258 258 258 258 258 258 258 258 259 259 259 259 259 259 259 259 259 260 260 260 260 260 260 261 261 261 262 262 262 262 263 263 263 263 263 263 263
256 257 258 259 259 259 259 260 260 260 260 259 259 259 260 259 259 259 259 259 259 259 259 259 259 258 258 258 258 258 258 258 258 258 258 258 258 258 259 259 259 259 259 259 258 259 258 258 258 258 258 258 258 258 258 258 258 258 258 259 259 259 259 259 260 260 260 260 261 261 261 261 262 262 262 262 263 263 263 263 263 263 263 263 263 262 262
Wind_Speed
15 16 18 18 17 16 16 17 18 20 20 20 19 20 19 15 14 15 14 16 19 15 12 14 12 10 11 12 12 13 15 15 16 16 16 17 16 16 16 15 15 15 14 15 15 15 18 24 28 31 32 32 32 31 33 34 31 31 30 29 31 34 34 37 41 42 42 42 42 40 38 38 39 40 41 42 42 41 42 43 43 43 43 43 43 42 42
10 12 15 15 16 16 16 17 19 21 22 24 24 24 23 21 21 21 20 22 21 12 8 8 8 10 10 11 12 14 15 15 14 15 15 14 14 14 15 14 14 14 14 14 14 15 18 22 26 28 29 32 35 35 36 36 36 33 28 28 32 33 34 38 42 41 40 39 38 37 38 39 40 41 41 41 41 42 42 42 42 42 42 42 43 43 43
8 10 13 13 13 14 15 16 17 18 19 21 22 20 19 20 21 22 24 23 15 7 9 8 9 10 11 12 13 14 14 12 12 13 12 12 12 13 13 13 13 14 14 15 16 16 17 22 26 28 29 32 34 36 38 39 39 35 28 28 32 32 35 40 40 37 37 37 36 37 39 40 40 41 41 41 42 42 41 41 41 41 42 43 43 44 44
7 10 12 13 13 13 14 15 17 19 18 17 17 17 17 17 17 19 19 14 6 7 10 9 10 13 14 12 11 11 11 12 12 12 11 11 12 12 13 13 13 15 15 15 16 16 19 24 28 29 30 32 33 35 39 42 42 38 30 29 30 32 37 39 37 35 35 35 36 38 39 40 40 40 40 40 41 41 41 42 41 41 42 44 44 44 44
8 11 14 12 10 12 13 12 12 14 14 13 13 13 13 11 8 7 5 2 4 7 10 11 13 14 13 11 7 8 10 11 11 11 11 11 12 12 12 13 13 14 14 13 15 18 21 25 28 30 31 30 31 35 38 41 42 38 32 30 30 33 36 35 33 33 33 33 35 37 38 38 38 37 38 39 41 41 42 41 41 41 42 43 43 43 43
9 14 14 10 9 13 10 3 4 2 2 4 5 3 6 9 7 5 5 4 5 7 9 11 12 10 11 11 5 4 9 11 11 12 12 12 13 12 12 13 13 13 12 13 18 22 25 28 31 33 33 33 36 39 39 40 41 38 32 29 29 31 32 31 31 31 31 33 35 35 34 34 34 35 37 39 39 39 39 39 40 41 42 42 42 43 43
7 8 8 8 11 10 2 5 5 3 4 8 7 6 8 10 9 9 8 7 7 8 8 7 7 8 10 10 6 4 11 13 12 12 12 12 13 13 13 13 13 13 13 16 20 24 27 30 32 34 35 37 41 43 41 39 39 38 33 29 27 27 27 27 27 28 29 31 31 30 30 31 32 34 36 36 36 37 37 38 40 40 40 41 41 41 41
5 4 5 9 9 4 3 4 6 4 3 7 6 5 7 8 6 6 6 5 5 6 6 6 6 8 10 8 4 2 10 12 11 11 12 12 13 12 12 13 13 14 16 18 22 26 27 30 31 31 34 37 39 41 41 38 37 37 33 29 27 25 24 24 24 24 26 26 26 26 26 28 31 33 34 35 35 36 35 36 36 36 37 39 39 40 40
5 6 7 8 8 5 1 2 5 3 1 3 3 2 2 4 2 2 3 2 3 3 5 7 7 9 9 6 2 2 6 9 9 9 10 11 12 12 13 15 18 20 22 24 25 27 29 30 30 31 35 38 37 37 38 37 37 36 32 29 28 26 24 24 22 22 23 24 25 25 26 29 31 32 33 34 34 35 34 34 34 35 36 37 38 39 39
4 5 5 4 6 4 1 2 5 4 5 5 3 3 2 3 0 2 3 0 2 2 4 6 7 9 10 8 5 4 8 10 9 9 10 9 12 14 16 19 21 24 27 27 28 29 29 30 30 32 35 37 35 33 34 35 36 34 29 28 30 30 29 26 23 22 23 24 25 26 27 30 31 30 31 32 33 35 35 35 34 35 35 35 35 37 39
4 5 5 4 5 3 3 3 6 6 7 5 3 4 3 4 2 5 4 2 3 2 3 4 5 7 8 8 8 9 11 11 10 10 10 10 12 16 19 20 22 25 27 28 29 30 29 29 32 34 36 35 32 30 31 33 34 31 28 29 32 32 31 28 24 23 23 24 26 26 28 29 29 29 30 30 31 32 34 34 33 33 34 34 34 35 37
5 5 6 5 4 2 2 2 5 6 6 2 2 6 3 3 3 6 5 4 5 4 4 3 2 5 6 7 10 11 11 11 10 9 11 11 12 15 18 20 22 25 26 26 27 28 28 30 34 35 34 33 30 29 30 30 29 29 31 34 35 33 30 27 24 23 23 24 26 26 27 27 27 27 28 28 29 30 30 30 31 31 32 33 32 33 34
7 7 6 4 3 3 1 3 6 6 4 2 4 8 3 2 5 5 6 5 6 4 4 4 1 3 6 7 11 13 11 10 9 9 11 13 15 16 19 22 23 24 24 24 25 26 27 31 34 34 32 31 30 30 29 27 27 31 35 38 38 35 31 27 24 22 21 23 24 24 25 24 24 25 26 26 28 29 29 28 28 29 30 30 30 30 31
3 4 4 5 5 2 2 2 6 3 2 2 6 5 2 4 6 5 6 6 6 5 5 5 4 6 7 7 10 11 11 10 9 9 11 13 15 17 19 21 22 22 23 25 25 26 28 30 31 32 32 30 29 29 27 26 30 35 38 39 40 38 34 29 25 22 21 21 21 22 22 22 23 24 25 26 27 28 28 27 27 27 27 27 27 26 27
1 2 3 5 6 3 3 4 4 2 0 4 6 5 4 5 5 6 6 5 5 5 5 6 7 7 8 9 9 9 9 9 9 9 10 11 13 15 18 20 21 21 22 24 25 28 30 30 30 30 29 28 28 27 27 29 34 37 37 38 39 39 36 32 28 24 21 20 20 20 20 21 23 23 24 25 26 26 27 26 25 24 24 25 24 23 23
3 4 5 5 4 3 2 4 3 4 5 6 5 6 6 4 4 5 5 5 6 6 5 6 7 7 8 10 9 8 9 9 9 10 10 11 13 15 17 19 21 21 21 23 26 30 31 31 31 30 27 26 27 28 28 33 36 37 37 37 37 37 36 34 30 26 22 19 19 20 20 22 23 23 23 24 25 26 27 26 24 22 22 23 22 21 22
4 5 5 5 3 5 7 7 7 9 9 7 5 6 6 5 4 5 4 5 7 6 5 6 6 7 9 9 8 8 9 9 10 10 11 13 14 16 18 20 20 20 21 24 27 30 31 31 31 30 28 26 27 31 33 35 36 35 34 34 34 34 35 34 32 28 23 20 19 20 21 22 24 24 24 24 24 25 26 25 24 22 21 22 22 20 21
5 4 6 7 7 8 10 10 8 8 8 6 5 5 6 6 5 5 4 6 6 5 5 5 5 7 9 9 9 9 9 10 11 11 12 14 16 17 19 20 21 22 23 25 26 29 33 34 31 30 32 30 30 35 38 35 32 33 34 35 35 34 33 33 32 29 24 21 19 20 21 23 24 24 25 26 25 24 24 24 23 22 21 22 22 20 21
6 5 7 8 8 9 10 9 8 8 8 7 5 6 7 7 6 5 5 5 5 5 5 5 6 8 9 9 10 9 8 9 11 11 11 13 16 19 20 20 22 23 21 21 23 26 32 36 33 31 34 35 36 39 40 34 30 32 35 36 35 34 33 33 31 28 25 22 21 20 21 22 23 23 24 26 25 24 25 25 23 22 22 22 23 21 21
6 8 10 10 9 10 9 9 8 8 9 9 7 7 7 5 4 4 4 4 4 4 5 5 5 7 9 10 10 9 8 9 10 11 12 13 16 21 24 23 23 22 20 20 21 23 29 35 35 34 36 39 39 38 36 33 31 34 37 36 35 35 35 32 30 28 26 24 22 21 22 23 24 24 25 26 27 27 29 28 25 24 23 23 26 25 24
6 8 10 11 11 10 9 11 11 9 9 10 8 6 5 4 4 5 4 4 4 4 6 6 5 8 11 10 8 8 9 10 11 11 13 16 18 22 24 24 23 22 23 24 24 24 30 35 37 37 38 39 38 36 34 34 35 36 38 36 35 36 36 31 29 27 26 24 24 23 23 24 26 27 28 29 30 29 29 30 28 26 25 25 27 27 26
7 9 11 12 10 8 8 11 11 7 5 5 4 3 3 5 5 5 5 6 5 5 6 6 5 8 11 10 9 9 10 11 13 14 16 18 21 23 23 23 23 23 25 26 26 28 33 35 35 36 37 38 39 38 37 37 36 36 36 33 32 34 34 31 28 26 24 24 25 24 24 23 24 25 26 28 30 28 27 28 29 27 24 24 25 26 26
11 12 13 10 5 5 9 10 7 2 1 2 3 4 4 3 3 3 4 7 8 8 8 7 6 8 10 10 10 9 10 14 17 20 20 19 20 24 24 23 22 23 25 27 27 30 35 35 34 34 37 42 45 43 39 36 35 35 35 31 28 28 28 27 27 26 24 24 24 24 24 24 22 22 21 22 26 27 25 25 26 26 24 21 22 24 27
13 13 11 6 3 7 10 7 1 2 2 1 3 3 2 2 2 4 5 7 8 9 10 11 9 9 10 11 11 11 13 16 19 22 23 24 24 26 26 23 22 23 26 28 29 32 35 36 36 37 41 48 49 41 35 34 33 34 34 30 27 28 28 27 29 28 25 25 24 23 23 22 21 21 19 17 18 22 23 22 22 24 25 22 21 22 25
12 12 9 4 4 8 7 2 2 2 4 3 0 1 3 4 5 5 6 6 6 7 9 12 14 15 12 11 13 13 13 17 23 24 24 26 27 25 24 24 24 25 27 30 33 35 36 37 40 41 44 50 47 36 30 32 34 35 35 32 30 32 31 28 28 27 25 24 24 23 22 22 21 21 19 16 13 15 19 21 20 21 24 25 23 22 23
6 7 5 3 4 6 3 1 1 2 5 5 3 3 4 5 6 7 8 8 8 8 9 10 14 19 18 15 15 16 15 19 26 26 21 21 23 21 21 24 28 29 30 32 36 37 37 39 41 41 44 50 46 36 33 36 36 35 36 34 33 33 31 29 27 26 25 24 24 23 23 23 22 21 21 20 16 14 14 15 15 17 21 24 25 24 24
2 2 2 4 8 7 1 0 3 3 4 4 5 5 6 8 9 10 11 11 11 13 14 15 15 19 20 18 17 18 18 19 22 22 19 18 21 23 26 29 32 33 34 34 37 38 37 38 40 41 45 48 44 38 37 36 33 31 32 33 34 35 35 34 31 28 27 26 24 24 23 23 22 22 21 20 19 17 16 14 13 14 18 22 25 25 25
3 4 2 3 7 6 3 3 4 4 3 4 4 6 8 10 9 9 11 12 11 11 13 16 16 14 15 16 16 15 15 16 16 17 18 21 25 29 32 32 33 35 35 35 37 38 37 37 38 40 43 43 39 36 34 31 29 32 37 38 37 36 35 34 31 29 29 27 25 24 24 23 23 23 21 20 19 18 18 17 16 15 16 19 23 24 25
3 3 3 2 3 4 5 4 5 5 4 5 5 6 6 8 9 10 11 11 10 10 11 14 15 14 14 16 16 13 11 13 14 16 20 26 30 33 33 34 37 38 37 35 35 35 35 35 35 37 40 39 36 34 33 33 36 40 41 37 34 32 30 28 26 26 27 26 25 25 25 23 23 22 20 20 19 18 17 17 17 16 16 17 20 21 24
4 4 4 4 3 4 5 5 5 6 6 6 6 5 4 6 9 11 12 11 10 11 12 13 14 15 15 15 16 16 15 17 20 23 26 30 33 33 34 34 32 28 25 25 28 31 33 34 34 35 37 38 36 37 38 38 39 38 35 33 32 32 31 29 27 27 27 25 24 23 23 22 21 20 19 19 19 18 18 17 17 17 16 18 20 20 22
5 5 3 1 3 5 5 5 6 6 6 5 6 7 7 7 9 12 13 12 11 11 13 13 13 14 15 17 20 23 23 24 25 28 30 32 32 32 32 30 24 19 19 24 28 32 33 33 34 37 39 40 40 39 37 35 33 33 33 33 33 33 33 32 30 28 27 24 21 20 20 20 19 19 19 18 17 18 17 17 17 17 17 18 20 21 22
5 5 4 4 5 6 6 5 6 8 7 6 8 9 8 8 10 13 13 12 12 12 13 14 14 15 19 23 25 25 25 26 27 28 29 30 30 30 31 30 28 28 30 31 33 34 34 33 36 40 42 42 39 37 34 33 33 33 32 30 28 28 29 28 27 26 25 23 20 19 19 18 18 18 18 18 18 18 18 17 17 18 19 19 20 22 24
5 5 5 6 7 8 8 7 7 9 10 9 8 9 8 8 9 11 11 12 13 13 12 12 16 21 25 27 26 24 25 25 23 21 21 24 27 29 31 32 31 32 33 34 36 38 37 36 38 41 42 39 37 35 33 32 31 29 28 26 25 27 27 26 25 25 25 22 20 19 19 19 19 19 19 19 19 19 19 19 18 18 19 20 21 23 27
2 2 4 4 4 6 9 9 7 8 10 10 8 8 8 9 9 11 12 12 13 13 14 16 21 26 28 26 24 22 21 18 15 13 15 20 25 30 32 32 31 32 35 37 38 38 38 38 39 40 38 35 33 32 30 30 30 30 29 27 26 26 26 24 22 23 23 22 19 19 20 19 19 19 19 19 19 19 19 19 19 19 19 19 20 23 27
3 4 5 5 5 6 8 9 9 9 11 12 12 10 9 10 12 14 15 15 16 19 21 24 27 29 27 23 20 17 15 14 13 14 17 22 26 29 30 29 29 30 32 35 36 36 36 36 36 34 32 32 31 30 31 32 33 31 29 27 25 25 24 22 20 20 21 20 19 19 20 19 19 20 20 20 20 20 19 19 19 20 19 19 20 23 25
5 5 5 5 7 8 8 8 9 9 10 11 12 12 12 14 15 17 18 20 22 24 26 26 26 23 20 17 16 16 16 17 18 19 22 25 27 28 27 26 26 25 23 26 30 33 32 31 31 31 31 31 30 31 32 32 31 29 27 26 25 24 23 21 20 21 21 19 19 20 20 20 20 21 21 20 19 19 19 19 20 21 21 23 24 24 23
6 6 5 5 7 9 9 10 12 13 13 14 14 15 16 18 19 21 23 24 25 25 26 25 22 19 18 19 21 22 23 24 24 24 25 26 28 27 24 22 21 17 12 15 24 30 30 30 31 32 30 29 29 30 31 30 29 27 26 25 23 22 21 20 20 19 17 17 18 18 18 18 18 18 19 19 19 19 19 19 20 22 23 25 26 24 24
9 9 9 10 10 11 12 14 16 17 17 17 18 19 20 22 23 24 24 24 25 26 26 25 23 21 22 22 21 21 24 26 27 27 28 29 28 25 18 15 14 12 11 17 27 31 31 32 33 31 28 28 28 29 30 30 29 28 28 27 25 22 21 19 16 13 13 14 16 16 16 17 16 15 17 18 18 19 19 20 22 23 23 23 24 25 26
8 9 10 11 12 12 14 15 16 17 17 17 18 19 21 23 24 24 22 23 25 25 25 24 22 20 19 17 15 16 22 27 29 29 30 30 28 23 18 19 21 21 21 25 30 30 30 32 32 29 27 27 27 27 27 25 23 21 21 21 19 16 14 12 11 11 12 14 15 15 15 15 15 15 16 17 17 19 20 22 24 24 23 23 25 26 27
6 7 9 10 10 11 12 12 14 16 18 19 18 19 21 23 23 21 20 22 24 23 23 23 19 15 14 13 12 14 22 28 30 30 30 28 24 19 16 19 24 26 26 28 29 29 29 30 28 26 25 25 23 21 19 15 11 9 7 5 5 5 7 9 11 12 13 14 15 15 14 15 15 16 17 17 18 19 21 22 23 23 23 24 25 26 27
7 8 9 10 10 10 11 12 14 16 18 19 20 22 23 23 21 19 19 21 23 22 21 21 19 16 16 17 18 21 26 29 29 29 27 21 15 10 8 12 22 28 30 30 29 27 27 26 24 23 23 21 18 14 11 7 4 3 3 4 5 7 9 10 11 12 13 14 15 15 16 17 17 17 17 18 19 19 20 21 22 22 24 25 26 28 29
8 10 10 10 9 11 12 13 14 15 16 18 21 22 23 22 21 21 21 22 22 21 20 20 20 20 21 23 23 24 25 25 26 26 24 19 14 9 8 14 25 31 31 30 28 26 25 24 23 22 20 18 15 11 8 6 6 7 9 10 11 11 12 13 13 14 14 15 16 16 17 18 18 17 18 18 19 20 21 22 21 22 24 26 28 29 31
9 11 10 8 9 12 13 14 14 14 15 18 20 21 22 22 22 22 20 20 19 19 19 19 19 20 21 23 22 20 19 22 23 22 21 22 22 17 14 18 27 31 29 28 26 24 23 23 23 21 18 15 13 11 9 9 10 10 12 13 14 14 15 15 15 16 16 17 17 16 17 18 18 18 18 18 18 19 21 22 22 23 25 27 29 30 31
12 12 10 11 13 14 14 14 14 12 13 16 19 22 22 22 21 19 17 17 18 18 17 17 17 18 20 20 17 14 15 19 20 18 15 16 18 19 22 26 28 28 27 27 25 23 23 23 22 20 17 15 13 12 12 13 13 13 13 14 14 15 16 16 16 17 17 17 17 17 17 18 18 18 19 19 19 20 20 21 22 24 26 27 28 29 30
13 13 14 15 16 15 14 13 13 14 15 19 22 23 22 20 17 16 16 16 16 16 15 14 15 16 18 18 17 16 18 20 20 18 13 8 9 17 27 31 28 26 27 27 25 23 23 23 21 19 17 15 14 15 15 15 14 14 15 15 15 15 16 16 17 17 18 18 18 18 18 18 18 19 20 20 20 20 21 21 23 25 27 28 29 29 29
13 15 17 16 16 16 17 18 19 20 20 19 17 16 15 15 14 14 15 14 14 14 14 14 14 15 17 18 19 19 20 22 21 18 15 12 13 20 27 29 27 26 27 26 25 25 25 24 22 20 17 16 16 17 17 17 16 16 16 16 16 16 16 16 17 17 18 18 19 19 19 19 20 20 20 21 21 22 22 23 24 24 26 28 29 29 28
14 15 16 17 18 20 22 23 21 18 15 11 8 8 11 13 14 13 13 13 13 13 13 13 14 14 15 16 16 16 17 18 18 17 19 21 22 23 25 26 25 25 25 24 24 25 25 23 22 20 19 17 18 19 18 18 18 18 17 17 17 17 17 17 17 18 18 19 20 21 21 21 21 21 22 22 23 24 25 26 26 26 26 27 27 27 27
15 16 18 20 21 22 22 20 15 10 8 7 8 9 11 13 13 13 12 12 12 12 12 12 12 13 14 15 15 15 15 13 11 14 20 25 25 23 23 24 23 23 24 24 24 25 24 23 22 21 21 20 20 20 19 19 19 18 18 18 18 17 17 17 18 18 19 19 20 20 20 21 22 22 23 23 23 25 27 28 28 27 26 26 26 25 25
18 19 19 19 18 17 16 12 7 5 6 8 10 11 12 12 11 10 10 10 11 11 10 10 11 13 15 15 15 16 16 13 9 13 19 23 22 21 22 22 22 22 23 24 24 25 25 24 23 23 22 22 22 21 20 20 20 19 19 19 19 19 18 19 19 19 20 20 20 20 21 22 22 23 23 24 24 25 26 26 26 25 25 25 24 24 24
17 16 14 13 12 12 11 8 5 6 8 10 10 10 10 9 6 6 8 10 10 9 9 10 10 12 15 16 16 15 16 15 14 15 18 19 19 20 20 21 21 22 23 24 25 25 26 26 26 24 24 23 23 22 22 21 21 21 20 20 20 20 21 21 21 21 22 22 23 23 23 23 23 24 24 24 25 25 25 25 24 23 23 23 23 22 22
14 12 11 11 11 11 11 10 9 9 10 10 9 9 8 6 5 6 8 10 10 9 8 9 10 12 15 16 17 17 17 17 17 18 18 19 19 20 20 21 22 23 24 25 25 25 26 26 26 25 25 25 24 23 23 23 23 22 22 22 21 21 21 21 22 22 23 23 23 23 23 22 23 23 24 23 23 23 23 22 22 21 21 21 21 21 21
14 14 12 11 10 11 12 12 10 9 9 9 8 7 6 5 5 6 7 9 10 9 8 7 8 11 15 16 16 17 18 17 17 18 18 19 19 20 21 22 23 23 24 25 25 25 25 25 25 25 25 25 25 25 24 24 24 24 24 23 23 23 23 23 23 23 23 23 23 23 22 21 22 22 22 21 21 21 21 20 20 20 20 20 20 19 19
Wind_Direction
254 259 268 269 269 270 269 270 271 269 267 264 258 255 255 254 258 263 263 261 262 264 266 272 287 313 330 347 5 22 32 28 22 23 22 17 12 6 3 1 357 354 349 348 348 349 349 349 347 344 341 334 326 313 299 292 284 274 264 252 244 239 234 232 232 231 229 227 226 224 220 218 216 215 214 214 212 211 209 208 209 209 208 207 205 204 205
269 266 270 269 268 271 270 268 266 266 266 265 264 265 265 265 265 267 271 268 266 279 319 339 0 9 3 7 19 30 31 25 21 20 16 12 7 1 358 354 351 349 345 344 343 343 346 347 344 342 339 337 334 328 320 313 303 293 279 261 251 243 237 236 235 232 229 227 224 221 218 217 216 213 212 212 210 209 208 208 207 206 206 205 205 204 203
279 272 271 266 262 264 269 270 267 265 267 268 270 273 274 272 271 270 271 270 271 319 1 5 14 13 12 16 20 24 23 18 18 17 12 8 2 357 353 348 346 346 345 345 346 344 343 342 341 340 337 335 334 332 331 326 316 307 290 268 255 246 241 242 239 234 230 226 221 219 217 216 215 212 210 209 208 207 206 205 205 204 203 203 204 204 204
271 270 270 272 277 278 274 272 270 267 266 265 265 265 263 265 271 275 276 277 300 350 347 351 10 13 11 11 16 22 18 12 12 9 4 1 356 352 349 346 346 345 344 345 344 341 340 339 339 337 335 333 333 333 332 328 322 313 296 273 259 250 246 245 241 236 232 226 221 218 216 214 213 210 208 206 205 204 203 203 202 201 202 202 203 203 203
280 275 276 286 297 289 274 269 276 274 269 270 269 266 272 287 302 295 289 337 14 346 347 1 8 8 360 350 2 28 20 10 8 1 355 352 349 347 345 344 344 341 340 341 339 337 336 335 335 333 332 333 332 331 331 328 326 318 300 279 264 255 252 248 241 237 232 225 222 220 216 213 211 207 205 204 203 202 201 200 199 199 201 202 201 202 201
274 276 288 300 287 275 271 298 11 10 4 352 336 321 345 3 27 64 86 66 26 5 10 8 358 353 343 326 318 40 27 12 3 355 349 345 343 343 342 341 340 338 335 335 335 335 335 334 334 333 334 336 334 333 334 333 332 327 311 290 273 264 259 253 244 237 230 224 223 221 217 212 208 205 204 203 202 201 199 197 197 198 200 200 200 201 201
264 276 290 280 265 263 243 72 51 83 88 57 67 83 47 31 44 64 60 45 30 15 6 359 342 331 325 309 289 15 23 12 358 347 341 340 339 338 337 337 336 335 334 334 335 335 333 334 335 335 335 337 336 335 335 336 336 333 323 305 288 276 269 261 251 240 231 226 223 221 216 210 205 204 204 203 201 200 198 197 198 198 199 199 199 200 200
258 251 242 252 267 271 127 67 25 29 38 31 51 82 60 44 48 60 50 30 24 5 342 341 332 317 313 298 264 21 17 4 352 341 334 334 335 333 333 334 332 332 333 333 332 331 331 332 334 335 335 336 335 334 333 335 337 337 331 318 304 293 281 271 260 247 236 228 224 220 214 209 206 205 204 203 201 198 197 198 199 199 199 199 199 199 199
239 245 247 258 280 283 196 356 356 6 343 341 336 327 60 67 37 63 77 23 2 353 332 330 324 318 319 304 247 82 16 349 339 329 321 323 325 325 329 330 329 331 333 333 332 331 331 333 334 335 335 335 335 333 333 334 337 337 335 328 320 312 298 284 271 255 242 231 224 219 213 209 208 207 205 203 200 197 195 195 196 198 199 199 200 199 198
257 276 278 274 277 268 170 266 278 259 249 238 220 244 210 119 225 233 163 189 306 325 328 322 324 334 337 324 311 344 345 334 331 322 314 319 325 328 331 332 332 334 334 333 333 333 332 332 334 336 335 334 334 333 333 334 335 335 336 335 331 324 312 299 283 265 249 236 226 220 214 211 210 209 206 203 200 197 195 195 196 197 198 199 199 200 199
278 284 277 272 271 233 155 230 247 246 259 246 201 234 209 133 198 228 183 199 234 225 280 304 338 352 342 320 311 325 333 330 326 321 319 327 330 329 331 332 332 333 332 331 331 332 332 331 333 335 334 334 334 333 332 334 333 332 334 336 334 328 319 308 292 274 257 242 232 224 218 215 212 209 207 204 202 199 197 196 196 196 197 197 198 199 200
259 264 264 270 274 231 163 254 266 265 271 274 272 272 256 126 216 217 179 217 232 209 241 271 352 349 320 303 304 313 319 317 316 321 325 328 329 327 328 329 328 328 328 330 330 331 331 330 331 333 334 333 332 330 330 331 330 329 330 331 331 329 323 314 299 281 264 248 237 228 223 219 214 210 207 203 201 199 197 197 196 195 196 196 196 197 199
246 253 259 269 268 238 211 263 271 283 320 358 273 271 287 350 271 214 174 220 236 212 242 260 275 280 269 274 288 297 305 307 311 319 320 318 319 319 321 324 326 326 326 328 327 326 328 329 329 331 332 331 328 327 327 327 325 324 325 327 328 328 325 316 304 288 271 255 242 234 228 221 215 210 206 203 201 197 196 195 194 194 195 195 195 196 197
226 230 243 278 278 220 129 272 272 298 29 272 261 266 273 283 265 209 185 220 231 220 237 245 248 261 264 267 277 287 296 302 309 314 315 315 313 314 317 320 324 326 325 325 324 323 324 326 325 328 330 327 324 323 323 321 321 321 322 324 325 325 323 317 308 296 281 265 250 238 230 221 213 209 205 203 201 197 195 194 192 192 193 192 192 193 195
250 248 240 268 264 218 84 9 328 358 72 252 275 299 275 237 217 204 210 225 227 232 245 249 257 269 276 278 279 284 291 299 305 306 308 308 307 311 314 315 320 325 323 320 320 319 320 322 322 326 327 323 321 321 318 317 320 320 319 320 320 319 319 316 310 301 287 270 253 238 229 220 212 207 203 201 198 195 194 193 191 190 190 189 188 188 190
244 240 235 235 234 245 328 341 302 271 263 260 273 287 273 237 200 204 220 231 233 234 243 258 270 279 280 282 287 290 293 299 302 301 303 305 304 307 308 308 316 322 319 316 315 314 315 318 320 323 324 322 318 315 314 317 320 318 316 317 316 314 313 312 308 303 290 272 253 239 228 218 209 205 201 197 195 195 194 192 190 189 189 187 185 185 188
221 209 232 255 282 295 293 288 267 259 266 268 255 247 255 251 218 196 207 239 247 238 236 253 269 276 277 280 285 287 290 296 297 297 300 299 299 301 303 304 311 316 315 312 311 309 310 314 318 320 321 320 315 310 311 317 317 315 317 320 317 313 310 307 304 300 290 274 256 241 230 217 208 203 198 194 194 195 194 192 192 190 188 188 188 189 191
254 243 248 261 274 274 267 266 265 262 265 265 236 222 238 240 220 202 211 239 252 250 244 250 259 267 275 281 282 283 288 290 290 292 294 295 298 300 300 304 311 316 314 310 308 308 309 311 315 316 316 315 310 306 309 313 312 313 319 320 315 311 308 304 301 295 285 272 257 242 231 220 212 207 201 196 194 195 195 196 197 193 189 189 191 192 195
262 261 251 246 248 254 257 264 270 270 269 258 222 216 236 232 218 218 220 233 255 263 251 247 255 266 273 279 280 281 283 283 287 292 292 294 298 297 297 303 309 311 309 305 305 307 306 307 311 314 312 309 306 305 307 309 309 312 315 314 310 306 303 301 300 292 279 268 257 241 229 220 214 211 207 201 198 197 198 198 198 196 193 191 192 194 195
239 249 261 261 253 255 264 271 272 272 272 264 239 224 231 234 232 233 219 217 239 260 262 258 263 271 274 274 275 280 282 280 283 288 288 291 295 295 296 301 306 307 304 299 300 301 299 302 308 310 307 305 304 304 305 306 310 312 310 307 303 300 297 295 294 288 276 265 254 241 230 221 214 211 208 204 204 206 205 202 200 200 197 195 197 198 195
254 263 270 270 269 271 272 268 265 264 262 259 247 227 231 260 268 261 255 243 231 244 265 273 274 274 274 274 275 279 283 283 284 284 285 287 288 288 290 295 299 300 299 298 299 297 295 299 305 306 303 302 301 301 303 306 309 308 303 300 297 294 293 290 287 282 274 262 251 240 231 224 219 217 214 210 210 213 213 211 208 207 206 206 205 203 198
258 260 257 257 265 275 269 267 272 271 248 237 232 222 243 261 258 261 280 282 269 260 260 259 261 270 275 279 282 280 280 282 285 287 288 290 288 287 289 292 293 292 292 293 296 294 293 297 301 300 299 298 296 297 300 303 304 301 297 295 292 289 289 287 283 278 271 260 250 240 232 226 222 222 222 219 217 217 217 217 216 214 215 217 215 210 207
249 253 255 254 257 264 266 273 284 305 130 182 232 253 259 254 254 282 297 291 290 289 279 263 255 263 274 281 282 278 278 280 283 285 288 288 288 290 293 295 294 294 293 293 293 292 293 296 296 295 295 294 293 295 299 300 299 295 291 289 286 284 285 285 283 279 270 259 251 241 234 228 221 218 220 221 221 221 220 219 219 217 218 221 219 214 212
256 262 266 262 241 254 267 276 272 108 94 172 236 262 305 324 299 291 280 273 279 287 292 290 282 274 277 282 282 281 282 283 283 285 287 286 286 289 293 294 294 295 296 295 293 292 293 295 295 294 293 291 291 294 298 297 294 291 287 283 282 281 282 282 282 279 271 260 252 242 233 228 221 216 213 214 218 221 219 219 218 217 217 218 217 213 211
257 267 273 273 245 255 273 301 121 96 51 37 285 291 328 314 294 283 274 270 268 271 282 291 292 289 284 282 282 282 282 282 284 287 288 288 288 289 290 292 293 294 295 294 293 293 294 295 295 294 292 290 291 296 298 295 290 286 282 280 279 279 280 280 279 276 269 260 252 242 232 226 220 215 212 211 211 212 213 216 220 220 219 219 215 210 208
263 276 297 336 280 263 268 280 240 58 38 11 332 309 301 294 287 283 278 276 277 276 274 277 286 289 287 283 282 283 281 282 286 288 287 287 289 290 291 294 296 296 295 293 292 292 293 293 293 292 290 289 292 298 299 293 286 279 277 277 278 278 279 279 277 273 267 259 250 242 236 228 221 217 216 215 210 202 198 203 213 218 217 217 216 211 206
39 12 358 294 275 269 253 347 306 348 3 330 310 306 305 305 300 294 289 285 281 279 274 271 276 282 283 282 282 282 282 284 287 289 286 284 288 292 294 297 297 296 295 292 290 290 292 292 291 289 287 289 294 299 297 290 283 280 283 287 287 284 282 281 279 275 269 262 252 243 236 228 223 220 218 214 210 204 198 196 200 205 208 210 212 210 205
50 34 26 262 265 283 339 345 320 325 330 319 315 311 312 314 310 300 296 294 290 283 277 277 278 279 282 288 289 286 285 286 286 286 286 287 290 294 297 298 297 295 293 290 288 290 291 290 288 285 285 290 298 299 294 289 289 294 295 292 288 283 279 277 275 272 267 262 253 243 235 228 224 221 216 211 208 203 201 201 200 199 200 201 203 205 203
37 19 4 304 287 311 329 328 321 323 325 322 317 310 314 319 312 300 296 298 300 297 293 291 289 286 287 293 295 292 290 287 285 285 288 291 294 296 297 297 295 292 289 286 287 289 289 287 285 283 285 292 298 296 291 291 293 292 288 283 279 277 276 276 277 275 271 263 252 244 236 228 222 216 210 207 204 199 198 200 198 197 196 191 190 195 198
353 335 319 309 329 345 339 331 326 320 317 317 315 313 314 311 302 296 296 300 301 296 296 299 298 295 293 294 294 293 291 288 289 290 290 292 294 295 295 295 294 291 286 284 285 287 287 285 283 283 287 293 295 292 290 289 287 284 282 281 281 279 278 279 281 281 277 269 255 242 232 224 217 210 204 201 198 195 196 196 194 193 191 186 184 187 188
320 319 319 325 1 354 339 327 315 306 306 314 315 315 314 305 295 292 295 299 299 296 297 299 298 297 298 298 296 294 291 288 288 288 289 290 291 292 291 290 287 284 285 286 287 287 287 285 283 284 289 292 292 289 288 286 284 284 285 285 284 280 278 278 277 274 273 270 255 235 222 215 209 203 200 197 193 191 192 191 191 190 187 185 186 186 182
332 343 7 13 357 343 331 328 320 312 315 322 316 312 312 306 296 293 293 295 296 296 298 299 297 298 301 302 300 297 293 288 286 286 287 288 288 288 288 286 282 281 283 285 287 288 288 285 284 287 291 291 289 288 287 285 283 283 282 280 279 278 278 277 273 270 271 267 250 227 214 208 203 199 197 195 191 190 189 187 188 189 185 184 185 183 180
15 360 348 348 344 331 321 322 319 309 308 310 306 301 300 295 289 287 289 293 295 295 296 295 296 299 301 302 299 296 293 290 287 284 284 286 287 289 290 289 286 284 284 286 288 289 287 285 286 289 292 291 289 288 287 284 281 278 277 277 278 277 275 273 268 266 267 261 241 219 208 204 200 197 197 195 191 189 188 187 187 186 183 184 184 181 180
28 311 295 304 308 302 302 305 304 300 301 299 294 291 292 290 288 289 291 293 294 294 295 297 298 300 300 299 295 293 292 291 290 287 285 287 290 292 293 292 290 289 290 291 291 289 287 287 290 292 293 292 291 289 287 284 279 277 276 276 274 272 271 269 262 258 258 252 232 211 203 201 197 196 196 194 190 189 188 187 184 180 178 178 177 175 177
306 286 284 284 278 275 282 288 292 295 298 297 296 295 292 291 292 293 294 295 295 297 299 300 298 298 297 294 292 289 286 284 285 288 290 291 292 295 297 298 298 298 296 294 292 291 291 293 294 295 296 295 293 290 287 283 279 277 274 271 267 267 267 263 258 255 253 240 217 201 196 195 194 194 193 191 189 188 186 181 178 175 170 164 162 166 172
293 286 280 278 276 273 271 274 281 284 286 289 294 296 295 294 294 294 295 296 297 298 299 298 296 295 294 292 291 290 288 288 288 290 291 294 298 301 304 304 302 300 297 294 295 296 297 298 298 298 297 295 291 289 286 283 279 275 271 267 265 266 265 261 258 257 249 227 204 195 194 192 190 189 187 185 185 184 180 175 171 166 160 156 158 160 158
288 282 277 275 275 274 272 274 278 281 282 283 284 287 291 293 294 295 296 296 296 297 296 295 294 292 290 290 290 290 291 292 294 295 298 303 307 309 307 303 301 299 294 296 301 303 303 301 299 299 296 292 290 289 288 285 279 274 272 269 265 263 263 259 254 248 233 208 193 188 185 182 181 180 179 179 179 177 173 168 162 157 156 158 157 151 143
284 280 277 278 280 277 277 279 280 281 282 283 282 284 287 290 293 295 295 294 295 296 295 293 291 290 292 294 295 294 297 302 305 307 309 311 312 309 304 300 299 296 292 297 302 304 303 302 301 300 297 293 291 290 290 289 285 279 274 270 265 260 258 252 239 220 199 184 178 175 171 170 170 170 171 172 171 168 164 159 154 152 153 151 146 140 139
287 284 281 282 283 281 282 285 284 281 279 281 284 287 289 290 292 293 292 292 295 296 296 296 297 297 299 302 301 303 310 315 316 314 312 312 310 307 300 297 298 298 299 303 306 306 304 304 304 301 298 295 294 294 296 297 295 287 276 267 259 250 240 223 198 175 164 162 160 159 160 161 161 160 159 159 156 154 152 150 148 147 144 140 137 138 140
290 292 291 289 288 286 286 287 286 284 283 283 284 287 291 292 293 292 292 294 297 299 301 304 307 306 307 310 312 315 318 318 316 314 313 313 311 308 302 302 307 312 315 316 314 311 309 309 308 305 302 301 302 303 304 304 304 299 283 259 234 203 180 164 152 145 144 145 144 143 143 143 142 142 142 141 139 139 140 141 141 139 136 134 135 138 140
295 297 297 294 292 289 288 288 288 289 289 287 285 287 290 291 292 292 293 296 300 304 308 310 311 310 313 317 318 316 315 316 317 318 318 316 314 313 310 311 318 323 325 324 322 321 320 321 321 318 316 315 316 319 322 329 345 15 56 82 96 107 114 118 121 123 126 128 129 129 129 128 127 127 128 128 129 130 133 134 134 135 135 135 136 138 140
298 298 298 297 293 290 289 289 290 291 292 292 291 291 292 293 293 292 294 297 303 309 312 313 314 315 318 319 318 315 316 320 324 325 325 324 323 319 312 315 323 329 333 333 332 332 333 335 337 337 336 336 337 341 353 21 48 65 76 82 86 91 94 95 98 104 109 113 114 117 121 123 122 121 122 124 126 129 130 130 131 133 136 138 140 142 145
300 300 300 299 296 294 293 293 293 293 293 294 294 295 297 297 295 294 296 301 308 313 315 316 319 322 323 322 321 321 324 329 330 330 329 328 328 328 326 324 328 334 338 339 339 341 344 346 347 348 351 353 357 5 22 40 53 66 77 82 86 89 91 92 95 99 103 105 107 111 116 118 119 121 122 123 125 129 133 134 135 137 140 143 144 146 148
299 300 301 298 297 297 297 295 294 292 292 295 298 299 299 297 295 296 301 306 311 315 319 321 324 326 328 327 327 327 327 329 331 331 330 327 329 335 339 338 335 337 341 344 346 349 350 351 353 357 1 7 16 28 38 44 48 57 67 75 81 87 89 92 94 97 99 102 105 110 114 117 119 122 124 125 127 131 133 135 137 140 142 144 145 146 149
299 301 301 299 297 297 295 293 292 292 293 295 297 297 295 294 296 302 307 309 311 316 321 322 324 327 328 328 328 328 327 328 329 331 334 330 324 331 338 341 341 342 346 350 354 355 355 357 1 6 11 19 28 37 43 47 50 55 61 66 71 78 83 88 93 96 99 103 106 109 113 116 119 121 124 126 128 131 133 136 139 142 143 145 146 148 150
303 304 302 298 295 293 292 292 292 293 293 292 291 291 294 300 306 309 310 310 312 317 322 324 326 328 330 332 334 334 334 333 333 336 341 340 328 328 337 343 346 347 352 358 1 360 359 3 9 14 21 31 38 42 45 47 50 57 63 67 70 74 77 82 88 94 98 104 108 111 114 116 118 120 124 127 128 131 134 136 138 139 142 146 148 150 152
305 304 301 297 294 295 296 297 295 292 290 288 288 296 305 310 311 310 310 314 318 323 327 330 331 333 339 344 347 344 338 334 332 337 346 348 343 342 347 352 352 355 1 7 9 8 9 12 17 22 30 40 46 49 51 52 54 58 61 64 69 75 78 83 88 92 97 104 110 113 116 119 121 123 126 128 129 132 136 137 137 139 143 146 148 151 154
304 299 297 296 295 295 296 296 293 288 287 292 298 303 307 310 311 312 315 321 326 329 333 336 339 345 352 357 356 354 351 343 330 331 342 348 349 351 355 359 2 7 12 16 18 21 24 27 30 34 39 43 46 49 53 56 60 64 66 67 70 74 78 83 89 94 98 102 106 109 113 117 120 122 124 126 128 133 136 138 139 143 146 148 151 154 156
303 300 298 298 297 296 294 290 283 285 299 303 303 304 307 310 312 315 321 329 333 334 337 343 348 352 357 360 359 357 358 357 341 328 336 346 353 357 1 8 15 20 22 24 26 28 32 37 41 45 47 48 48 49 52 56 60 65 69 72 75 79 82 86 92 96 99 102 105 107 110 114 117 120 122 125 128 132 136 137 140 144 147 150 152 154 157
308 305 302 298 294 294 294 294 297 306 308 307 307 309 311 313 315 320 331 339 342 338 340 348 355 356 357 360 1 360 359 359 354 348 349 357 4 8 10 15 21 25 29 32 32 32 35 40 43 46 49 53 54 55 57 59 61 64 67 72 76 80 85 90 94 98 101 104 107 109 111 114 117 120 123 126 129 133 136 139 141 145 149 151 153 156 159
313 307 301 300 302 305 309 313 317 316 314 316 317 317 317 319 322 329 342 353 356 350 343 346 355 359 359 358 359 1 2 3 4 5 6 10 14 17 20 23 26 30 33 35 35 36 38 41 42 45 50 54 56 58 61 64 66 68 71 75 78 82 86 91 95 97 101 104 107 109 112 115 118 121 123 126 130 133 136 139 142 145 149 153 156 158 161
330 328 325 326 330 331 328 325 323 326 331 333 332 331 333 333 333 342 358 6 6 1 351 342 346 358 2 1 360 2 7 9 12 15 18 19 21 24 28 30 31 33 36 37 38 39 42 43 46 48 51 53 56 59 62 65 67 69 72 75 79 83 86 90 94 97 100 104 106 108 110 114 117 119 121 125 129 133 137 141 145 148 152 155 158 160 162